If you wish to contribute or participate in the discussions about articles you are invited to join SKYbrary as a registered user

 Actions

Arctic Village Airport

From SKYbrary Wiki

PARC
Airport
ICAO: PARC – IATA: ARC
Summary
Name Arctic Village Airport
Region North America
Territory Alaska US.gif
Location , Alaska
Serving Arctic Village
Elevation 637.642 m
2,092 ft
2,092 ft637.642 m
Type medium airport
Coordinates 68° 6' 52.92" N, 145° 34' 44.40" W
Runways
Designator Length Width Surface ROPS
2/20 1372 m4,501.312 ft
23 m75.459 ft
GVL /


METAR
Observation PARC 251456Z AUTO 35007KT 10SM CLR 09/M06 A3002 RMK AO2 SLP190 T00891061 58002
Station Arctic Village, Arctic Village Airport
Date/Time 25 May 2019 14:56:00
Wind direction 350°
Wind speed 07 kts
Lowest cloud amount n/a
Temperature 8.9°C
Dew point
Humidity 34%
QNH hPa
Weather condition n/a